Regional Weather Roundup
Issued by NWS

Home | Current Version | Previous Version | Text Only | Print | Product List | Glossary On
Versions: 1 2 3 4 5 6 7 8 9 10 11 12 13 14 15 16 17 18 19 20 21 22 23 24 25 26 27 28 29 30 31 32 33 34 35 36 37 38 39 40 41 42 43 44 45 46 47 48 49 50
828
ASUS44 KLIX 280910
RWRLA
LOUISIANA WEATHER ROUNDUP
NATIONAL WEATHER SERVICE NEW ORLEANS LA
300 AM CST SAT FEB 28 2015

NOTE: "FAIR" INDICATES FEW OR NO CLOUDS BELOW 12,000 FEET WITH NO
      SIGNIFICANT WEATHER AND/OR OBSTRUCTIONS TO VISIBILITY.
      SKY/WX - SKY CONDITION AND SIGNIFICANT WEATHER.
      TMP - AIR TEMPERATURE.    DP   - DEWPOINT TEMPERATURE.
      RH  - RELATIVE HUMIDITY.  PRES - PRESSURE.
      HX  - HEAT INDEX.         WCI  - WIND CHILL INDEX.

*  THESE STATIONS ARE NOT NWS OR FAA STATIONS AND ARE NOT UNDER
   NWS QUALITY CONTROL.

LAZ040-048-061>063-065-066-069-281000-
SOUTHEAST LOUISIANA

CITY           SKY/WX    TMP DP  RH WIND       PRES   REMARKS
N.O. AUDUBON     N/A     44  32  63 MISG        N/A
N.O. INTL ARPT MOCLDY    45  30  55 NE13      30.37F
N.O. LAKEFRONT PTCLDY    46  31  55 E17       30.38F
SLIDELL        PTCLDY    38  29  70 NE7       30.38F WCI  33
BATON ROUGE    CLEAR     33  28  81 N3        30.41S
BOOTHVILLE     PTCLDY    50  42  74 NE10G17   30.33F
BELLE CHASSE   PTCLDY    44  29  55 NE12      30.36F
BOGALUSA*        N/A     38  28  69 N6        30.42S WCI  33
GALLIANO*      MOSUNNY   45  38  76 N6        30.35F
NEW ROADS*     FAIR      32  27  81 N6        30.41F WCI  26
GONZALES*      FAIR      37  31  80 N3        30.39S
HAMMOND*       PTCLDY    36  28  75 CALM      30.41R
HOUMA*         CLOUDY    42  35  76 N8        30.35F
PORT FOURCHON* CLOUDY    48  39  71 NE16G22   30.36S

$$

LAZ041-044-053-054-281000-
SOUTHWEST LOUISIANA

CITY           SKY/WX    TMP DP  RH WIND       PRES   REMARKS
LAKE CHARLES   CLOUDY    36  29  75 NE15      30.34F WCI  27
LAFAYETTE      CLEAR     33  28  81 NE13      30.38F WCI  24
PATTERSON      CLOUDY    41  32  70 NE10      30.36F
SALT POINT       N/A     40  33  76 VRB6      30.33F
NEW IBERIA     CLEAR     36  29  75 NE15      30.37F WCI  27
CHENAULT AIRPK CLOUDY    34  29  81 NE9G17    30.36S WCI  27

$$

LAZ027-028-281000-
CENTRAL LOUISIANA

CITY           SKY/WX    TMP DP  RH WIND       PRES   REMARKS
FORT POLK      CLEAR     32  26  77 NE10      30.34F WCI  24
ALEXANDRIA INT CLEAR     32  25  75 NE8       30.39F WCI  25
ALEXANDRIA     PTCLDY    32  25  75 CALM      30.40F

$$

LAZ001-002-281000-
NORTHWEST LOUISIANA

CITY           SKY/WX    TMP DP  RH WIND       PRES   REMARKS
SHREVEPORT     CLOUDY    32  23  69 E9        30.41F WCI  24
BARKSDALE AFB  CLOUDY    31  22  68 E3        30.43F
DTN SHREVEPORT CLOUDY    31  20  63 NE6       30.43F WCI  25

$$

LAZ014-016-281000-
NORTHEAST LOUISIANA

CITY           SKY/WX    TMP DP  RH WIND       PRES   REMARKS
MONROE         CLOUDY    32  26  78 NE8       30.47F WCI  25
TALLULAH       MOCLDY    34  26  72 N9        30.46F WCI  27

$$




USA.gov is the U.S. government's official web portal to all federal, state and local government web resources and services.